Location: Unspecified
(0.0000°N, 0.0000°E)
Time: 00:16:10
(UTC+00:00)

Vanguard 3 - Visible Passes

Search period start: 29 January 2015 00:00
Search period end: 08 February 2015 00:00
Orbit: 509 x 3275 km, 33.4° (Epoch: 27 January)

Date Brightness Start Highest point End Pass type
(mag) Time Alt. Az. Time Alt. Az. Time Alt. Az.
29 Jan 8.9 03:29:17 46° SSW 03:29:17 46° SSW 03:35:07 10° SSE visible
29 Jan 11.1 19:04:19 10° NW 19:14:06 17° N 19:25:15 10° NNE visible
29 Jan 11.1 21:24:01 10° NNW 21:32:12 19° N 21:32:12 19° N visible
30 Jan 9.9 02:21:01 27° SE 02:21:01 27° SE 02:23:50 10° SE visible
30 Jan 9.6 04:25:44 20° WSW 04:27:40 21° SW 04:32:48 10° S visible
30 Jan 11.0 20:08:42 10° NNW 20:19:32 18° N 20:23:52 17° NNE visible
30 Jan 11.3 22:25:33 10° NNW 22:28:34 15° NNW 22:28:34 15° NNW visible
31 Jan 9.4 03:17:26 37° S 03:17:26 37° S 03:22:44 10° SSE visible
31 Jan 11.1 18:53:15 10° NNW 19:02:02 16° N 19:12:17 10° NNE visible
31 Jan 11.0 21:10:50 10° NNW 21:20:14 22° N 21:20:14 22° N visible
01 Feb 10.2 02:09:05 23° SE 02:09:05 23° SE 02:11:34 10° SE visible
01 Feb 9.9 04:13:47 18° SW 04:15:07 18° SW 04:20:05 10° S visible
01 Feb 11.0 19:56:22 10° NNW 20:07:20 19° NNE 20:11:57 17° NNE visible
01 Feb 11.1 22:11:50 10° NNW 22:16:39 19° NNW 22:16:39 19° NNW visible
02 Feb 9.7 03:05:23 30° S 03:05:23 30° S 03:10:16 10° SSE visible
02 Feb 11.1 18:41:58 10° NNW 18:50:00 15° N 18:59:37 10° NE visible
02 Feb 10.8 20:57:33 10° NNW 21:08:23 25° N 21:08:23 25° N visible
02 Feb 11.5 23:12:47 10° NW 23:13:05 11° NW 23:13:05 11° NW visible
03 Feb 10.4 01:56:57 20° SE 01:56:57 20° SE 01:59:10 10° SE visible
03 Feb 10.2 04:01:39 15° SW 04:02:38 15° SW 04:07:13 10° S visible
03 Feb 10.9 19:43:45 10° NNW 19:55:01 20° NNE 20:00:10 18° NE visible
03 Feb 11.0 21:58:10 10° NW 22:04:53 24° NNW 22:04:53 24° NNW visible
04 Feb11.200:48:29SE00:48:29SE00:09:36NWvisible
04 Feb 10.0 02:53:10 26° S 02:53:10 26° S 02:57:41 10° SSE visible
04 Feb 11.0 18:30:23 10° NNW 18:37:56 15° N 18:47:19 10° NE visible
04 Feb 10.7 20:44:14 10° NNW 20:56:43 29° NNE 20:56:43 29° NNE visible
04 Feb 11.3 22:59:03 10° NW 23:01:26 16° NW 23:01:26 16° NW visible
05 Feb 10.6 01:44:39 18° SSE 01:44:39 18° SSE 01:46:37 10° SE visible
05 Feb 10.4 03:49:20 14° SW 03:50:12 14° SW 03:54:15 10° S visible
05 Feb 10.8 19:30:58 10° NNW 19:42:36 22° NNE 19:48:38 19° NE visible
05 Feb 10.7 21:44:35 10° NW 21:53:21 31° NNW 21:53:21 31° NNW visible
06 Feb11.200:36:06SE00:36:06SE23:58:05WNWvisible
06 Feb 10.3 02:40:46 22° S 02:40:46 22° S 02:45:01 10° SSE visible
06 Feb 11.0 18:18:26 10° NNW 18:25:48 15° NNE 18:35:19 10° NE visible
06 Feb 10.5 20:30:56 10° NNW 20:45:20 34° NNE 20:45:20 34° NNE visible
06 Feb 11.1 22:45:26 10° NW 22:50:05 22° NW 22:50:05 22° NW visible
07 Feb 10.7 01:32:10 17° SSE 01:32:10 17° SSE 01:33:58 10° SSE visible
07 Feb 10.6 03:36:51 12° SW 03:37:50 12° SSW 03:41:08 10° SSW visible
07 Feb 10.7 19:18:04 10° NNW 19:30:01 24° NNE 19:37:25 20° NE visible
07 Feb 10.5 21:31:05 10° NW 21:42:09 40° NNW 21:42:09 40° NNW visible
